Location: Newark
(43.4545°N, 5.8521°W)
Time: 00:04:20
(UTC+00:00)

ISS - Pass Details

Date: 23 November 2019
Orbit: 411 x 421 km, 51.6° (Epoch: 06 December)

Event Time Altitude Azimuth Distance (km) Brightness Sun altitude
Rises 19:46:43 0° 263° (W) 2,354 1.2 -31.3°
Reaches altitude 10° 19:48:56 10° 273° (W) 1,495 -0.1 -31.7°
Enters shadow 19:49:11 12° 275° (W) 1,402 -0.3 -31.7°
